Tracking 29489 objects as of 9-Sep-2024
HD Live streaming from Space Station
objects crossing your sky now

FENGYUN 1C DEB

Track FENGYUN 1C DEB now!
10-day predictions


NORAD ID: 31342
Int'l Code: 1999-025BQW
Perigee: 697.5 km
Apogee: 861.4 km
Inclination: 98.9 °
Period: 100.3 minutes
Semi major axis: 7150 km
RCS: 0.0151 m2 (small)
Launch date: May 10, 1999
Source: People's Republic of China (PRC)
Launch site: Taiyaun Space Center, China (TSC)

Note: This is SATELLITE DEBRIS
Your satellite tracking list
Your tracking list is empty




NASA's NSSDC Master Catalog

Two Line Element Set (TLE):
1 31342U 99025BQW 24253.07488118  .00001616  00000-0  53338-3 0  9990
2 31342  98.8744 187.8635 0114565 131.8575 229.2457 14.35830853913694
Source of the keplerian elements: AFSPC